[[[{"header":{"parameterUnit":"kt","parameterCategory":2,"dx":1,"dy":1,"la1":30.253999710083008,"la2":30.299108505249023,"lo1":-89.0895004272461,"lo2":-89.04439544677734,"nx":28,"ny":28,"refTime":"2022-09-22T21:00:00:Z","depth":0,"parameterNumber":1,"parameterNumberName":"U-component_of_WINDS"},"data":[-3.0113,-3.0173,-3.0164,-3.0229,-3.0233,-3.0275,-3.0288,-3.0304,-3.0314,-3.0365,-3.0393,-3.039,-3.0397,-3.0429,-3.0459,-3.0457,-3.0469,-3.0499,-3.0491,-3.037,-3.0352,-3.0336,-3.032,-3.0502,-3.0502,-3.0616,-3.0617,-3.0618,-3.003,-3.0034,-3.0066,-3.009,-3.0117,-3.0085,-3.0102,-3.0126,-3.0165,-3.0178,-3.0204,-3.0248,-3.0282,-3.0278,-3.0308,-3.0337,-3.0323,-3.0346,-3.0342,-3.0343,-3.0215,-3.0198,-3.0357,-3.0357,-3.0357,-3.0357,-3.0357,-3.0357,-2.9877,-2.9913,-2.9921,-2.9955,-2.9965,-2.9981,-3.0014,-3.0009,-3.0039,-3.0068,-3.0051,-3.0095,-3.0106,-3.0137,-3.0145,-3.0179,-3.0151,-3.0173,-3.0178,-3.0183,-3.0191,-3.0027,-3.0184,-3.0184,-3.0183,-3.0183,-3.0182,0,-2.9761,-2.9751,-2.9778,-2.9805,-2.9828,-2.9848,-2.9863,-2.9883,-2.9856,-2.9883,-2.9919,-2.9939,-2.9978,-3.0012,-3.0037,-3.004,-3.0006,-3.0002,-3.0017,-3.0024,-3.0029,-3.0026,-2.9815,-2.9996,-2.9995,-2.9994,-2.9993,-2.9992,-2.9604,-2.9646,-2.9649,-2.9671,-2.9675,-2.971,-2.9729,-2.9701,-2.9722,-2.9737,-2.977,-2.9804,-2.9828,-2.9889,-2.988,-2.9909,-2.9892,-2.9963,-2.9896,-2.9904,-2.9892,-2.9888,-2.9892,-2.9975,-2.9977,-2.9979,-2.998,0,-2.9516,-2.9498,-2.956,-2.9558,-2.9558,-2.9605,-2.9603,-2.9637,-2.9627,-2.9673,-2.9682,-2.9665,-2.9702,-2.9681,-2.9718,-2.9706,-2.9785,-2.9768,-2.9781,-2.9776,-2.9836,-2.983,-3.0035,-3.0061,-2.9874,-2.9875,-2.9877,0,-2.9373,-2.943,-2.9399,-2.9436,-2.9499,-2.9468,-2.9531,-2.9527,-2.9533,-2.9569,-2.9527,-2.9562,-2.9529,-2.9562,-2.9544,-2.9604,-2.9611,-2.9605,-2.9599,-2.9607,-2.9608,-2.9615,-2.9605,-2.9585,-2.9584,-2.9583,-2.9582,0,-2.9236,-2.9285,-2.9345,-2.9353,-2.9354,-2.9383,-2.9385,-2.939,-2.9408,-2.9428,-2.9439,-2.9465,-2.9478,-2.9499,-2.9475,-2.9431,-2.9549,-2.9482,-2.9542,-2.9543,-2.9566,-2.9564,-2.9754,-2.9581,-2.9581,-2.958,-2.958,0,-2.9115,-2.9135,-2.9225,-2.9224,-2.9238,-2.9278,-2.9299,-2.9328,-2.9336,-2.9327,-2.9342,-2.9309,-2.936,-2.9296,-2.9365,-2.9314,-2.9331,-2.9329,-2.9333,-2.9333,-2.9261,-2.9368,-2.9554,-2.9571,-2.9339,-2.9337,-2.9335,0,-2.8963,-2.9047,-2.9019,-2.9105,-2.914,-2.9088,-2.9132,-2.914,-2.913,-2.9159,-2.9149,-2.9182,-2.913,-2.9136,-2.9174,-2.9164,-2.9231,-2.9155,-2.9197,-2.9199,-2.9194,-2.9365,-2.9396,-2.9516,-2.9309,-2.9312,-2.9314,0,-2.8841,-2.8838,-2.8855,-2.8862,-2.8865,-2.8893,-2.8944,-2.8969,-2.899,-2.9002,-2.9043,-2.909,-2.9052,-2.9063,-2.9038,-2.9078,-2.9185,-2.9031,-2.9031,-2.9059,-2.9294,-2.9324,-2.9344,-2.916,-2.9163,-2.9165,-2.9293,0,-2.8661,-2.8699,-2.8745,-2.8759,-2.8778,-2.883,-2.8803,-2.8826,-2.88,-2.8787,-2.8847,-2.8845,-2.8869,-2.8886,-2.886,-2.8959,-2.8938,-2.8896,-2.8829,-2.8942,-2.8983,-2.9,-2.877,-2.8768,-2.8766,-2.8765,0,0,-2.8519,-2.8572,-2.8536,-2.8582,-2.8595,-2.8537,-2.8594,-2.86,-2.8613,-2.8624,-2.8587,-2.8651,-2.865,-2.8725,-2.8759,-2.8769,-2.8784,-2.8744,-2.8889,-2.8903,-2.8916,-2.896,-2.8978,-2.8762,-2.8761,-2.876,-2.876,0,-2.8446,-2.8446,-2.8502,-2.8507,-2.8511,-2.8493,-2.8508,-2.8501,-2.8495,-2.8552,-2.8502,-2.8535,-2.8585,-2.8591,-2.8601,-2.8736,-2.8695,-2.8746,-2.8826,-2.8872,-2.8888,-2.8903,-2.895,-2.8967,-2.8755,-2.8756,-2.8756,0,-2.8319,-2.8314,-2.8338,-2.8363,-2.8364,-2.8401,-2.8325,-2.8367,-2.8394,-2.8326,-2.8382,-2.8378,-2.8382,-2.8457,-2.8489,-2.8456,-2.8615,-2.856,-2.857,-2.8572,-2.8615,-2.8634,-2.8652,-2.842,-2.8419,-2.8418,0,0,-2.826,-2.8294,-2.8277,-2.8345,-2.835,-2.8323,-2.8339,-2.8312,-2.8317,-2.8319,-2.831,-2.8317,-2.8346,-2.8366,-2.8391,-2.8477,-2.8475,-2.8519,-2.8535,-2.8548,-2.8557,-2.8603,-2.8623,-2.8414,-2.8414,-2.8414,0,0,-2.823,-2.8213,-2.8184,-2.8259,-2.8266,-2.8252,-2.8295,-2.826,-2.8279,-2.8269,-2.8226,-2.8226,-2.8295,-2.8291,-2.8241,-2.8366,-2.8301,-2.8312,-2.8366,-2.8385,-2.8401,-2.8399,-2.816,0,0,0,0,0,-2.8139,-2.8215,-2.8189,-2.8197,-2.8227,-2.8268,-2.8271,-2.8237,-2.8191,-2.8226,-2.8213,-2.8168,-2.8255,-2.821,-2.8219,-2.8274,-2.8363,-2.8372,-2.838,-2.8469,-2.849,-2.8508,0,0,0,0,0,0,-2.8142,-2.8152,-2.8187,-2.8178,-2.8184,-2.8264,-2.818,-2.8172,-2.8186,-2.8177,-2.8172,-2.8168,-2.8139,-2.8203,-2.8212,-2.8264,-2.8157,-2.8366,-2.8374,-2.8381,-2.8476,-2.8493,-2.8508,0,0,0,0,0,-2.8144,-2.8152,-2.8209,-2.8176,-2.8182,-2.8155,-2.8176,-2.817,-2.818,-2.8158,-2.8153,-2.8152,-2.8142,-2.8147,-2.8208,-2.8261,-2.8151,-2.8154,-2.8371,-2.8377,-2.8383,-2.8485,0,0,0,0,0,0,-2.8146,-2.8147,-2.8209,-2.8209,-2.8144,-2.8149,-2.8149,-2.8168,-2.8159,-2.8155,-2.8136,-2.8129,-2.8145,-2.8148,-2.8152,-2.8262,-2.8146,-2.8149,-2.8151,-2.8376,-2.8381,-2.8385,0,0,0,0,0,0,-2.8142,-2.8147,-2.8209,-2.817,-2.8166,-2.8145,-2.8144,-2.8191,-2.816,-2.8138,-2.8131,-2.8133,-2.8138,-2.8149,-2.8152,-2.8226,-2.8142,-2.8145,-2.8147,-2.8149,-2.838,-2.8384,0,0,0,0,0,0,-2.8144,-2.8148,-2.817,-2.8167,-2.8162,-2.8165,-2.8185,-2.8218,-2.8127,-2.8139,-2.8118,-2.8114,-2.8141,-2.8143,-2.8152,-2.8226,-2.8226,-2.8142,-2.8144,-2.8146,-2.8147,0,0,0,0,0,0,0,-2.8145,-2.8122,-2.8207,-2.8164,-2.816,-2.8213,-2.8213,-2.8214,-2.8126,-2.8122,-2.8119,-2.8115,-2.8123,-2.8127,-2.813,-2.8225,0,0,-2.8142,-2.8143,0,0,0,0,0,0,0,0,-2.8119,-2.8121,-2.8207,-2.8207,-2.8207,-2.8213,-2.8213,-2.8214,-2.8125,-2.8123,-2.812,-2.8117,-2.8124,-2.8127,-2.813,0,0,0,0,0,0,0,0,0,0,0,0,0,0,0,-2.8207,-2.8207,0,-2.8213,-2.8213,-2.8213,-2.8125,-2.8123,-2.812,-2.8118,-2.8125,-2.8127,-2.813,0,0,0,0,0,0,0,0,0,0,0,0,0,0,0,0,0,0,0,0,0,0,0,0,0,0,0,0,0,0,0,0,0,0,0,0,0,0,0,0,0,0,0,0,0,0,0,0,0,0,0,0,0,0,0,0,0,0,0,0,0,0,0,0,0,0,0,0,0]}],[{"header":{"parameterUnit":"kt","parameterCategory":2,"dx":1,"dy":1,"la1":30.253999710083008,"la2":30.299108505249023,"lo1":-89.0895004272461,"lo2":-89.04439544677734,"nx":28,"ny":28,"refTime":"2022-09-22T21:00:00:Z","depth":0,"parameterNumber":2,"parameterNumberName":"V-component_of_WINDS"},"data":[1.0087,1.0107,1.014,1.0178,1.0214,1.0244,1.0265,1.0296,1.0328,1.0367,1.0394,1.0429,1.0473,1.0512,1.0542,1.0556,1.0565,1.0547,1.0566,1.0621,1.063,1.0639,1.0637,1.0549,1.0549,1.0504,1.0503,1.0503,1.0117,1.0154,1.0185,1.0237,1.0263,1.03,1.0344,1.0362,1.0388,1.0429,1.0459,1.0495,1.0528,1.058,1.0616,1.0623,1.0641,1.063,1.0628,1.0634,1.0695,1.0692,1.0614,1.0614,1.0614,1.0614,1.0614,1.0614,1.0182,1.0193,1.0246,1.028,1.0316,1.035,1.0366,1.041,1.044,1.0485,1.052,1.0549,1.0596,1.0657,1.0685,1.0707,1.0726,1.0724,1.0722,1.072,1.0711,1.0766,1.0716,1.0716,1.0716,1.0717,1.0717,0,1.0239,1.0267,1.0301,1.0343,1.037,1.0406,1.0446,1.0457,1.0527,1.0549,1.0582,1.0607,1.0655,1.0689,1.0731,1.0763,1.0802,1.0811,1.0809,1.079,1.0767,1.0776,1.0869,1.0812,1.0813,1.0814,1.0814,1.0814,1.0304,1.0315,1.0388,1.0407,1.0438,1.0467,1.0491,1.0554,1.0576,1.0633,1.0639,1.0675,1.0708,1.0754,1.0805,1.084,1.0859,1.0833,1.0865,1.0846,1.0855,1.0852,1.0852,1.0825,1.0823,1.0822,1.0821,0,1.0336,1.0394,1.0424,1.0496,1.0515,1.0522,1.0583,1.0597,1.064,1.0665,1.0674,1.074,1.0772,1.0828,1.0875,1.0903,1.0909,1.0929,1.0892,1.0898,1.0878,1.0878,1.0809,1.0802,1.0897,1.0896,1.0896,0,1.0413,1.0426,1.0512,1.0526,1.0542,1.0606,1.0619,1.0658,1.0702,1.0723,1.0779,1.0797,1.0867,1.0891,1.0933,1.0949,1.0959,1.098,1.099,1.0974,1.097,1.0984,1.0987,1.1018,1.1018,1.1019,1.1019,0,1.0455,1.052,1.0543,1.0567,1.0647,1.0656,1.0689,1.0741,1.0764,1.0804,1.0819,1.086,1.0882,1.0911,1.0964,1.0983,1.0987,1.1024,1.1008,1.1006,1.1004,1.1003,1.0931,1.1019,1.1019,1.1019,1.102,0,1.0527,1.0569,1.0596,1.0663,1.0678,1.0694,1.074,1.0767,1.0817,1.0846,1.0877,1.0922,1.0944,1.0976,1.1006,1.1016,1.1033,1.1057,1.1056,1.106,1.1094,1.1042,1.0969,1.0962,1.1064,1.1065,1.1065,0,1.0557,1.0602,1.066,1.0684,1.0713,1.0776,1.0794,1.0839,1.0878,1.0907,1.095,1.0982,1.1018,1.1036,1.1044,1.1089,1.1076,1.1093,1.1126,1.1126,1.1108,1.1043,1.1017,1.0979,1.1071,1.107,1.107,0,1.0589,1.069,1.0691,1.072,1.0793,1.0819,1.084,1.0888,1.0903,1.0949,1.0966,1.1015,1.1043,1.1072,1.1114,1.1119,1.1086,1.1149,1.1151,1.1133,1.108,1.1054,1.1048,1.1112,1.1112,1.1111,1.1074,0,1.0677,1.071,1.0716,1.0783,1.0812,1.0833,1.0898,1.092,1.0957,1.1,1.1029,1.1082,1.1129,1.1139,1.1176,1.1171,1.118,1.1211,1.1246,1.1204,1.1192,1.1188,1.1256,1.1258,1.1259,1.126,0,0,1.0689,1.0739,1.0804,1.083,1.0859,1.0926,1.0941,1.0977,1.1047,1.1064,1.1085,1.1159,1.1202,1.123,1.1222,1.1242,1.1246,1.1259,1.1224,1.1219,1.1216,1.1203,1.1198,1.1262,1.1262,1.1263,1.1263,0,1.0736,1.0783,1.0801,1.0841,1.0904,1.095,1.0953,1.1027,1.1055,1.1087,1.114,1.1166,1.1226,1.1262,1.1288,1.1258,1.1295,1.1268,1.1228,1.1234,1.1228,1.1223,1.1209,1.1203,1.1266,1.1266,1.1266,0,1.0777,1.0833,1.085,1.0922,1.0964,1.0993,1.1046,1.1076,1.1098,1.1169,1.1199,1.1237,1.1293,1.1313,1.1325,1.1344,1.1336,1.1351,1.1346,1.1348,1.1356,1.1349,1.1342,1.1425,1.1425,1.1425,0,0,1.0807,1.084,1.0921,1.0937,1.096,1.103,1.1053,1.1094,1.1145,1.1165,1.1216,1.1261,1.1297,1.1318,1.1355,1.1369,1.1384,1.1368,1.1361,1.1355,1.1353,1.1359,1.1352,1.1427,1.1427,1.1427,0,0,1.0822,1.0917,1.0948,1.0976,1.1023,1.1103,1.1109,1.1147,1.1188,1.1193,1.1262,1.1278,1.1298,1.1334,1.1341,1.1368,1.1401,1.1401,1.1344,1.1335,1.1328,1.1318,1.1402,0,0,0,0,0,1.0904,1.0906,1.0933,1.0947,1.104,1.1088,1.11,1.1159,1.1181,1.1184,1.1232,1.1272,1.1352,1.136,1.1372,1.1363,1.1441,1.1438,1.1436,1.1366,1.1357,1.1349,0,0,0,0,0,0,1.0911,1.0929,1.0933,1.1012,1.1033,1.1089,1.1138,1.1154,1.1182,1.1189,1.1262,1.1275,1.1324,1.1357,1.1367,1.1358,1.1398,1.144,1.1438,1.1436,1.1363,1.1355,1.1348,0,0,0,0,0,1.0916,1.0931,1.1065,1.1012,1.1031,1.1109,1.1139,1.1153,1.1175,1.1251,1.1265,1.1217,1.1322,1.1335,1.1364,1.1352,1.1392,1.1395,1.1438,1.1437,1.1435,1.1359,0,0,0,0,0,0,1.092,1.0943,1.107,1.1078,1.1017,1.1107,1.1124,1.1151,1.1236,1.125,1.1209,1.1214,1.1321,1.1331,1.134,1.1346,1.1386,1.139,1.1392,1.1437,1.1436,1.1435,0,0,0,0,0,0,1.0935,1.0949,1.1074,1.1077,1.1086,1.1105,1.112,1.1153,1.1236,1.1189,1.1196,1.121,1.1306,1.1328,1.1336,1.1386,1.1382,1.1386,1.1388,1.139,1.1436,1.1435,0,0,0,0,0,0,1.0942,1.0954,1.1076,1.1082,1.109,1.1181,1.1136,1.1227,1.124,1.1184,1.1243,1.1244,1.1302,1.1311,1.1332,1.1379,1.1384,1.1382,1.1385,1.1386,1.1388,0,0,0,0,0,0,0,1.0947,1.0857,1.1024,1.1086,1.1093,1.1149,1.1152,1.1154,1.1241,1.1242,1.1243,1.1244,1.1363,1.1367,1.137,1.1373,0,0,1.1382,1.1384,0,0,0,0,0,0,0,0,1.0853,1.0856,1.1025,1.1026,1.1028,1.115,1.1151,1.1153,1.1241,1.1242,1.1243,1.1243,1.1364,1.1367,1.137,0,0,0,0,0,0,0,0,0,0,0,0,0,0,0,1.1025,1.1026,0,1.115,1.1151,1.1153,1.1241,1.1242,1.1242,1.1243,1.1365,1.1367,1.137,0,0,0,0,0,0,0,0,0,0,0,0,0,0,0,0,0,0,0,0,0,0,0,0,0,0,0,0,0,0,0,0,0,0,0,0,0,0,0,0,0,0,0,0,0,0,0,0,0,0,0,0,0,0,0,0,0,0,0,0,0,0,0,0,0,0,0,0,0]}]]]